• In Germany
  • List of Countries
  • For 7 days
  • Water Temperature
  • Satellite Maps
  • Weather Map
  • Weather Widgets
  • user-avatar
    Login

    Hourly Weather Wlora

    Today, 29 March, Wednesday

    Time Temperature Precipitation Wind Pressure Humidity
    00:00 +10°C° 0 mm 5 mps 765 mmHg 68%
    01:00 +9°C° 0 mm 5 mps 765 mmHg 67%
    02:00 +9°C° 0 mm 5 mps 765 mmHg 64%
    03:00 +10°C° 0 mm 4 mps 765 mmHg 62%
    04:00 +10°C° 0 mm 4 mps 765 mmHg 60%
    05:00 +11°C° 0 mm 4 mps 765 mmHg 58%
    06:00 +11°C° 0 mm 4 mps 765 mmHg 56%
    07:00 +12°C° 0 mm 4 mps 765 mmHg 54%
    08:00 +14°C° 0 mm 4 mps 765 mmHg 48%
    09:00 +18°C° 0 mm 4 mps 765 mmHg 42%
    10:00 +20°C° 0 mm 4 mps 765 mmHg 36%
    11:00 +20°C° 0 mm 4 mps 765 mmHg 35%
    12:00 +21°C° 0 mm 5 mps 765 mmHg 35%
    13:00 +22°C° 0 mm 5 mps 764 mmHg 34%
    14:00 +21°C° 0 mm 5 mps 764 mmHg 38%
    15:00 +20°C° 0 mm 6 mps 764 mmHg 42%
    16:00 +20°C° 0 mm 6 mps 763 mmHg 46%
    17:00 +16°C° 0 mm 6 mps 764 mmHg 55%
    18:00 +14°C° 0 mm 5 mps 764 mmHg 65%
    19:00 +12°C° 0 mm 5 mps 764 mmHg 75%
    20:00 +12°C° 0 mm 5 mps 764 mmHg 75%
    21:00 +12°C° 0 mm 5 mps 764 mmHg 75%
    22:00 +11°C° 0 mm 4 mps 765 mmHg 75%
    23:00 +11°C° 0 mm 4 mps 765 mmHg 73%

    Tomorrow, 30 March, Thursday

    Time Temperature Precipitation Wind Pressure Humidity
    00:00 +11°C° 0 mm 4 mps 765 mmHg 70%
    01:00 +11°C° 0 mm 4 mps 765 mmHg 68%
    02:00 +11°C° 0 mm 4 mps 764 mmHg 66%
    03:00 +10°C° 0 mm 5 mps 764 mmHg 63%
    04:00 +10°C° 0 mm 5 mps 764 mmHg 61%
    05:00 +12°C° 0 mm 5 mps 764 mmHg 57%
    06:00 +13°C° 0 mm 5 mps 764 mmHg 54%
    07:00 +14°C° 0 mm 5 mps 764 mmHg 50%
    08:00 +16°C° 0 mm 5 mps 764 mmHg 46%
    09:00 +19°C° 0 mm 5 mps 764 mmHg 42%
    10:00 +21°C° 0 mm 5 mps 765 mmHg 38%
    11:00 +22°C° 0 mm 5 mps 764 mmHg 36%
    12:00 +22°C° 0 mm 6 mps 764 mmHg 35%
    13:00 +23°C° 0 mm 6 mps 764 mmHg 34%
    14:00 +23°C° 0 mm 7 mps 764 mmHg 38%
    15:00 +22°C° 0 mm 7 mps 763 mmHg 42%
    16:00 +21°C° 0 mm 8 mps 763 mmHg 46%
    17:00 +18°C° 0 mm 8 mps 763 mmHg 55%
    18:00 +16°C° 0 mm 7 mps 764 mmHg 64%
    19:00 +14°C° 0 mm 7 mps 764 mmHg 73%
    20:00 +14°C° 0 mm 7 mps 764 mmHg 72%
    21:00 +14°C° 0 mm 6 mps 765 mmHg 70%
    22:00 +14°C° 0 mm 6 mps 765 mmHg 69%
    23:00 +14°C° 0 mm 5 mps 765 mmHg 67%

    Day after tomorrow, 31 March, Friday

    Time Temperature Precipitation Wind Pressure Humidity
    00:00 +14°C° 0 mm 5 mps 765 mmHg 64%
    01:00 +14°C° 0 mm 5 mps 765 mmHg 62%
    02:00 +13°C° 0 mm 5 mps 765 mmHg 63%
    03:00 +13°C° 0 mm 4 mps 765 mmHg 64%
    04:00 +12°C° 0 mm 4 mps 765 mmHg 66%
    05:00 +13°C° 0 mm 4 mps 765 mmHg 64%
    06:00 +14°C° 0 mm 4 mps 765 mmHg 63%
    07:00 +14°C° 0 mm 4 mps 765 mmHg 61%
    08:00 +17°C° 0 mm 3 mps 765 mmHg 55%
    09:00 +19°C° 0 mm 3 mps 766 mmHg 49%
    10:00 +22°C° 0 mm 3 mps 766 mmHg 42%
    11:00 +22°C° 0 mm 3 mps 765 mmHg 41%
    12:00 +23°C° 0 mm 4 mps 765 mmHg 39%
    13:00 +23°C° 0 mm 4 mps 765 mmHg 38%
    14:00 +22°C° 0 mm 4 mps 765 mmHg 41%
    15:00 +22°C° 0 mm 5 mps 764 mmHg 45%
    16:00 +21°C° 0 mm 5 mps 764 mmHg 48%
    17:00 +19°C° 0 mm 4 mps 764 mmHg 56%
    18:00 +17°C° 0 mm 4 mps 764 mmHg 64%
    19:00 +14°C° 0 mm 3 mps 765 mmHg 72%
    20:00 +14°C° 0 mm 3 mps 765 mmHg 73%
    21:00 +15°C° 0 mm 2 mps 765 mmHg 73%
    22:00 +15°C° 0 mm 2 mps 765 mmHg 73%
    23:00 +15°C° 0 mm 2 mps 765 mmHg 73%

    1 April, Saturday

    Time Temperature Precipitation Wind Pressure Humidity
    00:00 +15°C° 0 mm 2 mps 765 mmHg 73%
    01:00 +14°C° 0 mm 1 mps 765 mmHg 73%
    02:00 +14°C° 0 mm 2 mps 765 mmHg 72%
    03:00 +14°C° 0 mm 2 mps 765 mmHg 72%
    04:00 +14°C° 0 mm 2 mps 764 mmHg 72%
    05:00 +14°C° 0 mm 2 mps 765 mmHg 70%
    06:00 +15°C° 0 mm 2 mps 765 mmHg 67%
    07:00 +16°C° 0 mm 3 mps 765 mmHg 65%
    08:00 +17°C° 0 mm 3 mps 765 mmHg 60%
    09:00 +19°C° 0 mm 4 mps 765 mmHg 55%
    10:00 +20°C° 0 mm 4 mps 765 mmHg 50%
    11:00 +20°C° 0 mm 5 mps 764 mmHg 50%
    12:00 +21°C° 0 mm 5 mps 764 mmHg 49%
    13:00 +21°C° 0 mm 6 mps 764 mmHg 49%
    14:00 +20°C° 0 mm 6 mps 763 mmHg 52%
    15:00 +20°C° 0 mm 5 mps 763 mmHg 55%
    16:00 +19°C° 0 mm 5 mps 763 mmHg 57%
    17:00 +17°C° 0 mm 5 mps 763 mmHg 64%
    18:00 +15°C° 0 mm 4 mps 763 mmHg 70%
    19:00 +13°C° 0 mm 4 mps 763 mmHg 76%
    20:00 +13°C° 0 mm 4 mps 763 mmHg 75%
    21:00 +13°C° 0 mm 5 mps 764 mmHg 74%
    22:00 +13°C° 0 mm 5 mps 764 mmHg 73%
    23:00 +13°C° 0 mm 5 mps 764 mmHg 74%

    2 April, Sunday

    Time Temperature Precipitation Wind Pressure Humidity
    00:00 +13°C° 0 mm 5 mps 764 mmHg 75%
    01:00 +13°C° 0 mm 5 mps 764 mmHg 75%
    02:00 +12°C° 0 mm 5 mps 764 mmHg 77%
    03:00 +11°C° 0 mm 6 mps 763 mmHg 78%
    04:00 +11°C° 0 mm 6 mps 763 mmHg 79%
    05:00 +13°C° 0 mm 6 mps 763 mmHg 76%
    06:00 +14°C° 0 mm 6 mps 764 mmHg 72%
    07:00 +14°C° 0 mm 6 mps 764 mmHg 69%
    08:00 +16°C° 0 mm 6 mps 764 mmHg 62%
    09:00 +18°C° 0 mm 7 mps 764 mmHg 56%
    10:00 +20°C° 0 mm 7 mps 764 mmHg 49%
    11:00 +20°C° 0.2 mm 7 mps 764 mmHg 50%
    12:00 +20°C° 0.2 mm 7 mps 764 mmHg 50%
    13:00 +20°C° 0.2 mm 8 mps 764 mmHg 51%
    14:00 +20°C° 0.1 mm 8 mps 763 mmHg 54%
    15:00 +18°C° 0.1 mm 7 mps 763 mmHg 56%
    16:00 +18°C° 0.1 mm 7 mps 763 mmHg 59%
    17:00 +17°C° 0.1 mm 7 mps 763 mmHg 65%
    18:00 +15°C° 0.1 mm 6 mps 763 mmHg 72%
    19:00 +14°C° 0.1 mm 6 mps 763 mmHg 79%
    20:00 +14°C° 0.2 mm 5 mps 764 mmHg 79%
    21:00 +14°C° 0.2 mm 5 mps 764 mmHg 80%
    22:00 +14°C° 0.2 mm 5 mps 764 mmHg 80%
    23:00 +14°C° 0.2 mm 5 mps 763 mmHg 80%

    3 April, Monday

    Time Temperature Precipitation Wind Pressure Humidity
    00:00 +13°C° 0.2 mm 5 mps 763 mmHg 80%
    01:00 +13°C° 0.2 mm 4 mps 763 mmHg 79%
    02:00 +13°C° 0.6 mm 4 mps 762 mmHg 80%
    03:00 +13°C° 0.6 mm 4 mps 762 mmHg 80%
    04:00 +12°C° 0.6 mm 4 mps 762 mmHg 81%
    05:00 +13°C° 0.3 mm 5 mps 761 mmHg 79%
    06:00 +13°C° 0.3 mm 6 mps 761 mmHg 77%
    07:00 +13°C° 0.3 mm 6 mps 761 mmHg 75%
    08:00 +15°C° 0.2 mm 7 mps 761 mmHg 67%
    09:00 +16°C° 0.2 mm 7 mps 761 mmHg 60%
    10:00 +17°C° 0.2 mm 8 mps 761 mmHg 52%
    11:00 +17°C° 0.3 mm 8 mps 761 mmHg 54%
    12:00 +17°C° 0.3 mm 8 mps 761 mmHg 55%
    13:00 +17°C° 0.3 mm 9 mps 760 mmHg 57%
    14:00 +17°C° 0.3 mm 8 mps 760 mmHg 62%
    15:00 +16°C° 0.3 mm 7 mps 760 mmHg 66%
    16:00 +15°C° 0.3 mm 7 mps 760 mmHg 71%
    17:00 +14°C° 0.7 mm 6 mps 760 mmHg 77%
    18:00 +13°C° 0.7 mm 6 mps 760 mmHg 83%
    19:00 +13°C° 0.7 mm 5 mps 760 mmHg 89%
    20:00 +12°C° 1.6 mm 5 mps 760 mmHg 90%
    21:00 +12°C° 1.6 mm 5 mps 760 mmHg 91%
    22:00 +10°C° 1.6 mm 5 mps 760 mmHg 92%
    23:00 +11°C° 1.2 mm 4 mps 760 mmHg 91%
    Show more